Voltar ao catálogo

BRO-19

AtivoCiênciaSSO
NORAD 68422·PAYLOAD·🇫🇷 France

Lançado Mar 30, 2026 de Vandenberg Space Force Base

Loading…

Próximas Passagens (próximas 24 horas)

TLE

AtualizadoSource: Space-Track

Época: Sep 14, 2026, 02:34 UTC

1 68422U 26067G   26257.10758297  .00002907  00000-0  14089-3 0  9997
2 68422  97.4573 214.3561 0001153  64.5517 295.5837 15.19317162 25449

Acompanhe BRO-19 em tempo real com AllMySat

Download on the App Store